Location: Bo?a Wola
(50.4192°N, 19.7966°E)
Time: 12:22:20
(UTC+00:00)

Cosmos 1934 Rocket - Pass Details

Date: 16 September 2024
Orbit: 938 x 997 km, 83.0° (Epoch: 08 October)

Event Time Altitude Azimuth Distance (km) Brightness Sun altitude
Rises 01:00:50 0° 353° (N) 3,697 7.6 -28.6°
Reaches altitude 10° 01:03:30 10° 0° (N) 2,752 6.9 -28.4°
Maximum altitude 01:09:31 44° 72° (ENE) 1,339 5.0 -27.7°
Drops below altitude 10° 01:15:33 10° 144° (SE) 2,759 6.3 -27.0°
Sets 01:18:13 0° 151° (SSE) 3,706 6.9 -26.7°
